Home > Weather > Choloma > Past weeks

Flag for Honduras Past Weather in Choloma, Honduras — Yesterday and Last 2 Weeks

Now
79 °F

Passing clouds.


Feels Like: 83 °F
Forecast: 78 / 90 °F
Wind: 2 mph from Southeast

Location: La Mesa San Pedro Sula

Current Time: May 24, 2016 at 5:52:01 AM

Latest Report: May 24, 2016 at 5:00 AM


Visibility: N/A

Pressure: 29.89 "Hg

Humidity: 100%

Dew Point: 79 °F

Location of CholomaLocation

Past Weather in Choloma — Graph

°F

Choloma Temperature Yesterday

Maximum temperature yesterday: 99 °F (at 1:00 PM)
Minimum temperature yesterday: 79 °F (at 5:00 AM)
Average temperature yesterday: 86 °F

High & Low Weather Summary for the Past Weeks

 TemperatureHumidityPressure
High100 °F (May 20, 12:00 PM)100% (May 10, 12:00 AM)30.09 "Hg (May 10, 12:00 AM)
Low70 °F (May 9, 5:00 AM)30% (May 17, 3:00 PM)29.71 "Hg (May 18, 4:00 PM)
Average85 °F81%29.88 "Hg
* Reported May 9 5:00 AM — May 24 4:00 AM, Choloma, Weather by CustomWeather, © 2016

Note: Actual official high and low records may vary slightly from our data, if they occured in-between our weather recording intervals... More about our weather records

Advertising

Choloma Weather History for the Previous 24 Hours

Scroll right to see more
 ConditionsComfort  
Time TempWeatherWind HumidityBarometerVisibility
4:00 AM
Tue, May 24
81 °FPassing clouds.No wind94%29.89 "HgN/A
3:00 AM81 °FPassing clouds.No wind100%29.89 "HgN/A
2:00 AM81 °FPassing clouds.2 mph100%29.89 "HgN/A
1:00 AM81 °FPassing clouds.3 mph100%29.89 "HgN/A
12:00 AM82 °FPassing clouds.2 mph94%29.89 "HgN/A
11:00 PM
Mon, May 23
82 °FPassing clouds.6 mph94%30.09 "HgN/A
10:00 PM82 °FPassing clouds.8 mph94%29.89 "HgN/A
9:00 PM82 °FPassing clouds.9 mph94%29.89 "HgN/A
8:00 PM84 °FPassing clouds.12 mph89%29.86 "HgN/A
7:00 PM84 °FPassing clouds.16 mph94%29.83 "HgN/A
6:00 PM88 °FPassing clouds.17 mph84%29.77 "HgN/A
5:00 PM91 °FScattered clouds.16 mph75%29.77 "HgN/A
4:00 PM93 °FPartly sunny.17 mph71%29.77 "HgN/A
3:00 PM97 °FPartly sunny.17 mph63%29.77 "HgN/A
1:00 PM99 °FPartly sunny.6 mph47%29.80 "HgN/A
12:00 PM97 °FPartly sunny.7 mph50%29.83 "HgN/A
11:00 AM95 °FPartly sunny.7 mph56%29.86 "HgN/A
10:00 AM91 °FPartly sunny.5 mph63%29.86 "HgN/A
9:00 AM88 °FPartly sunny.3 mph75%29.89 "Hg5 mi
8:00 AM84 °FPartly sunny.6 mph89%29.86 "HgN/A
7:00 AM81 °FPartly sunny.7 mph94%29.83 "HgN/A
6:00 AM79 °FScattered clouds.5 mph100%29.83 "HgN/A
5:00 AM79 °FPassing clouds.No wind100%29.86 "HgN/A
Weather by CustomWeather, © 2016

See weather overviewHow to use our weather pages